Time,TemperatureF,DewpointF,PressureIn,WindDirection,WindDirectionDegrees,WindSpeedMPH,WindSpeedGustMPH,Humidity,HourlyPrecipIn,Conditions,Clouds,dailyrainin,SoftwareType,DateUTC
2013-11-03 00:00:00,65.6,62.6,30.13,SSW,200,1.0,4.0,90,0.00,RA,,0.00,WeatherDisplay:10.37,2013-11-02 23:00:00,
2013-11-03 00:10:00,65.8,62.8,30.13,SSW,202,0.0,5.0,90,0.00,CLR,,0.00,WeatherDisplay:10.37,2013-11-02 23:10:00,
2013-11-03 00:20:00,65.8,62.8,30.13,South,186,0.0,5.0,90,0.00,CLR,,0.00,WeatherDisplay:10.37,2013-11-02 23:20:00,
2013-11-03 00:30:00,65.7,62.7,30.13,SSW,199,0.0,2.0,90,0.00,CLR,,0.00,WeatherDisplay:10.37,2013-11-02 23:30:00,
2013-11-03 00:40:00,65.7,62.7,30.12,SSW,198,0.0,4.0,90,0.00,CLR,,0.00,WeatherDisplay:10.37,2013-11-02 23:40:00,
2013-11-03 00:50:00,65.6,62.3,30.12,SSW,202,1.0,5.0,89,0.00,CLR,,0.00,WeatherDisplay:10.37,2013-11-02 23:50:00,
2013-11-03 01:00:00,65.6,62.3,30.12,SSW,192,1.0,5.0,89,0.00,CLR,,0.00,WeatherDisplay:10.37,2013-11-03 00:00:00,
2013-11-03 01:10:00,65.4,61.8,30.12,South,183,0.0,5.0,88,0.00,CLR,,0.00,WeatherDisplay:10.37,2013-11-03 00:10:00,
2013-11-03 01:20:00,65.4,61.8,30.12,SSW,195,1.0,4.0,88,0.00,CLR,,0.00,WeatherDisplay:10.37,2013-11-03 00:20:00,
2013-11-03 01:30:00,65.5,61.9,30.12,SSW,195,1.0,4.0,88,0.00,CLR,,0.00,WeatherDisplay:10.37,2013-11-03 00:30:00,
2013-11-03 01:40:00,65.5,61.9,30.12,SSW,200,2.0,7.0,88,0.00,CLR,,0.00,WeatherDisplay:10.37,2013-11-03 00:40:00,
2013-11-03 01:50:00,65.7,62.0,30.12,SSW,196,1.0,7.0,88,0.00,CLR,,0.00,WeatherDisplay:10.37,2013-11-03 00:50:00,
2013-11-03 02:00:00,65.7,62.0,30.12,SSE,168,0.0,4.0,88,0.00,CLR,,0.00,WeatherDisplay:10.37,2013-11-03 01:00:00,
2013-11-03 02:10:00,65.8,62.1,30.12,South,188,0.0,8.0,88,0.00,CLR,,0.00,WeatherDisplay:10.37,2013-11-03 01:10:00,
2013-11-03 02:20:00,65.7,62.0,30.11,SSW,198,1.0,8.0,88,0.00,CLR,,0.00,WeatherDisplay:10.37,2013-11-03 01:20:00,
2013-11-03 02:30:00,65.7,62.0,30.11,South,189,1.0,5.0,88,0.00,CLR,,0.00,WeatherDisplay:10.37,2013-11-03 01:30:00,
2013-11-03 02:40:00,65.7,62.0,30.10,SSW,200,1.0,8.0,88,0.00,CLR,,0.00,WeatherDisplay:10.37,2013-11-03 01:40:00,
2013-11-03 02:50:00,65.8,62.1,30.10,South,188,1.0,6.0,88,0.00,CLR,,0.00,WeatherDisplay:10.37,2013-11-03 01:50:00,
2013-11-03 03:00:00,65.8,62.1,30.10,SSW,197,2.0,6.0,88,0.00,CLR,,0.00,WeatherDisplay:10.37,2013-11-03 02:00:00,
2013-11-03 03:20:00,65.7,62.0,30.09,SSW,196,2.0,7.0,88,0.00,CLR,,0.00,WeatherDisplay:10.37,2013-11-03 02:20:00,
2013-11-03 03:30:00,65.7,61.7,30.09,South,186,1.0,7.0,87,0.00,CLR,,0.00,WeatherDisplay:10.37,2013-11-03 02:30:00,
2013-11-03 03:40:00,65.6,61.6,30.09,SSW,199,0.0,5.0,87,0.00,CLR,,0.00,WeatherDisplay:10.37,2013-11-03 02:40:00,
2013-11-03 03:50:00,65.5,61.5,30.09,SW,214,1.0,5.0,87,0.00,CLR,,0.00,WeatherDisplay:10.37,2013-11-03 02:50:00,
2013-11-03 04:00:00,65.6,61.6,30.09,SSW,192,1.0,6.0,87,0.00,CLR,,0.00,WeatherDisplay:10.37,2013-11-03 03:00:00,
2013-11-03 04:10:00,65.6,61.6,30.09,SSW,207,0.0,5.0,87,0.00,CLR,,0.00,WeatherDisplay:10.37,2013-11-03 03:10:00,
2013-11-03 04:20:00,65.6,61.6,30.08,SSW,210,1.0,7.0,87,0.00,CLR,,0.00,WeatherDisplay:10.37,2013-11-03 03:20:00,
2013-11-03 04:30:00,65.6,61.6,30.08,SSW,208,0.0,3.0,87,0.00,CLR,,0.00,WeatherDisplay:10.37,2013-11-03 03:30:00,
2013-11-03 04:40:00,65.5,61.9,30.08,SSW,200,0.0,2.0,88,0.00,CLR,,0.00,WeatherDisplay:10.37,2013-11-03 03:40:00,
2013-11-03 04:50:00,65.4,62.1,30.08,SSW,200,0.0,2.0,89,0.00,CLR,,0.00,WeatherDisplay:10.37,2013-11-03 03:50:00,
2013-11-03 05:00:00,65.3,62.0,30.08,SSW,200,0.0,1.0,89,0.00,CLR,,0.00,WeatherDisplay:10.37,2013-11-03 04:00:00,
2013-11-03 05:10:00,65.2,62.2,30.08,SSW,200,0.0,3.0,90,0.00,CLR,,0.00,WeatherDisplay:10.37,2013-11-03 04:10:00,
2013-11-03 05:20:00,65.0,62.0,30.08,SSW,200,0.0,1.0,90,0.00,CLR,,0.00,WeatherDisplay:10.37,2013-11-03 04:20:00,
2013-11-03 05:30:00,64.9,62.2,30.08,SSW,200,0.0,2.0,91,0.00,CLR,,0.00,WeatherDisplay:10.37,2013-11-03 04:30:00,
2013-11-03 05:40:00,64.7,62.0,30.08,SSW,200,0.0,1.0,91,0.00,CLR,,0.00,WeatherDisplay:10.37,2013-11-03 04:40:00,
2013-11-03 05:50:00,64.6,61.9,30.08,SSW,200,0.0,0.0,91,0.00,CLR,,0.00,WeatherDisplay:10.37,2013-11-03 04:50:00,
2013-11-03 06:00:00,64.6,61.9,30.08,SSW,200,0.0,3.0,91,0.00,CLR,,0.00,WeatherDisplay:10.37,2013-11-03 05:00:00,
2013-11-03 06:10:00,64.5,61.8,30.08,SSW,200,0.0,2.0,91,0.00,CLR,,0.00,WeatherDisplay:10.37,2013-11-03 05:10:00,
2013-11-03 06:20:00,64.3,61.6,30.08,SSW,200,0.0,1.0,91,0.00,CLR,,0.00,WeatherDisplay:10.37,2013-11-03 05:20:00,
2013-11-03 06:30:00,64.1,61.4,30.08,SSW,200,0.0,1.0,91,0.00,CLR,,0.00,WeatherDisplay:10.37,2013-11-03 05:30:00,
2013-11-03 06:40:00,64.0,61.3,30.09,SSW,200,0.0,1.0,91,0.00,CLR,,0.00,WeatherDisplay:10.37,2013-11-03 05:40:00,
2013-11-03 06:50:00,64.0,61.3,30.09,SSW,200,0.0,1.0,91,0.00,CLR,,0.00,WeatherDisplay:10.37,2013-11-03 05:50:00,
2013-11-03 07:00:00,64.0,61.3,30.09,SSW,200,0.0,1.0,91,0.00,CLR,,0.00,WeatherDisplay:10.37,2013-11-03 06:00:00,
2013-11-03 07:10:00,64.0,61.3,30.10,SSW,200,0.0,1.0,91,0.00,CLR,,0.00,WeatherDisplay:10.37,2013-11-03 06:10:00,
2013-11-03 07:20:00,64.0,61.3,30.10,SSW,200,0.0,1.0,91,0.00,CLR,,0.00,WeatherDisplay:10.37,2013-11-03 06:20:00,
2013-11-03 07:30:00,64.0,61.3,30.10,SSW,200,0.0,1.0,91,0.00,CLR,,0.00,WeatherDisplay:10.37,2013-11-03 06:30:00,
2013-11-03 07:40:00,64.3,61.6,30.11,SSW,200,0.0,1.0,91,0.00,CLR,,0.00,WeatherDisplay:10.37,2013-11-03 06:40:00,
2013-11-03 07:50:00,64.8,62.1,30.11,SSW,200,0.0,2.0,91,0.00,CLR,,0.00,WeatherDisplay:10.37,2013-11-03 06:50:00,
2013-11-03 08:00:00,65.3,62.3,30.11,SSW,200,0.0,2.0,90,0.00,CLR,,0.00,WeatherDisplay:10.37,2013-11-03 07:00:00,
2013-11-03 08:10:00,65.8,62.4,30.11,SW,219,0.0,4.0,89,0.00,CLR,,0.00,WeatherDisplay:10.37,2013-11-03 07:10:00,
2013-11-03 08:20:00,66.1,62.4,30.11,SSW,209,1.0,3.0,88,0.00,CLR,,0.00,WeatherDisplay:10.37,2013-11-03 07:20:00,
2013-11-03 08:30:00,66.5,62.5,30.11,SSW,211,0.0,2.0,87,0.00,CLR,,0.00,WeatherDisplay:10.37,2013-11-03 07:30:00,
2013-11-03 08:40:00,66.8,62.5,30.11,SSW,209,0.0,2.0,86,0.00,CLR,,0.00,WeatherDisplay:10.37,2013-11-03 07:40:00,
2013-11-03 08:50:00,67.0,62.4,30.11,SSW,209,0.0,2.0,85,0.00,CLR,,0.00,WeatherDisplay:10.37,2013-11-03 07:50:00,
2013-11-03 09:00:00,67.2,62.2,30.11,WSW,243,0.0,3.0,84,0.00,CLR,,0.00,WeatherDisplay:10.37,2013-11-03 08:00:00,
2013-11-03 09:10:00,67.3,62.0,30.11,WSW,258,0.0,2.0,83,0.00,CLR,,0.00,WeatherDisplay:10.37,2013-11-03 08:10:00,
2013-11-03 09:20:00,67.2,61.9,30.11,SSW,206,0.0,6.0,83,0.00,CLR,,0.00,WeatherDisplay:10.37,2013-11-03 08:20:00,
2013-11-03 09:30:00,67.1,61.8,30.12,SSW,199,1.0,4.0,83,0.00,CLR,,0.00,WeatherDisplay:10.37,2013-11-03 08:30:00,
2013-11-03 09:40:00,67.0,62.0,30.12,SSW,204,0.0,5.0,84,0.00,CLR,,0.00,WeatherDisplay:10.37,2013-11-03 08:40:00,
2013-11-03 09:50:00,67.1,62.1,30.12,SSW,199,1.0,4.0,84,0.00,CLR,,0.00,WeatherDisplay:10.37,2013-11-03 08:50:00,
2013-11-03 10:00:00,67.0,62.0,30.12,SSW,195,1.0,6.0,84,0.00,CLR,,0.00,WeatherDisplay:10.37,2013-11-03 09:00:00,
2013-11-03 10:10:00,66.3,62.0,30.12,South,187,1.0,5.0,86,0.01,RA,,0.01,WeatherDisplay:10.37,2013-11-03 09:10:00,
2013-11-03 10:20:00,66.2,62.2,30.12,WSW,240,0.0,5.0,87,0.00,CLR,,0.01,WeatherDisplay:10.37,2013-11-03 09:20:00,
2013-11-03 10:30:00,66.5,62.8,30.11,SW,215,3.0,7.0,88,0.00,CLR,,0.01,WeatherDisplay:10.37,2013-11-03 09:30:00,
2013-11-03 10:40:00,67.4,63.7,30.11,SSW,193,0.0,4.0,88,0.00,CLR,,0.01,WeatherDisplay:10.37,2013-11-03 09:40:00,
2013-11-03 10:50:00,68.2,63.9,30.11,South,173,2.0,5.0,86,0.00,CLR,,0.01,WeatherDisplay:10.37,2013-11-03 09:50:00,
2013-11-03 11:00:00,68.6,63.6,30.11,SSW,198,1.0,5.0,84,0.00,CLR,,0.01,WeatherDisplay:10.37,2013-11-03 10:00:00,
2013-11-03 11:10:00,69.1,63.4,30.10,SW,215,2.0,7.0,82,0.00,CLR,,0.01,WeatherDisplay:10.37,2013-11-03 10:10:00,
2013-11-03 11:20:00,69.2,63.2,30.10,South,189,2.0,10.0,81,0.00,CLR,,0.01,WeatherDisplay:10.37,2013-11-03 10:20:00,
2013-11-03 11:30:00,69.6,63.2,30.09,SSW,209,3.0,12.0,80,0.00,CLR,,0.01,WeatherDisplay:10.37,2013-11-03 10:30:00,
2013-11-03 11:40:00,69.3,62.8,30.09,SSW,203,1.0,9.0,80,0.00,CLR,,0.01,WeatherDisplay:10.37,2013-11-03 10:40:00,
2013-11-03 11:50:00,69.2,63.2,30.08,SSW,197,2.0,7.0,81,0.00,CLR,,0.01,WeatherDisplay:10.37,2013-11-03 10:50:00,
2013-11-03 12:00:00,68.9,62.9,30.08,South,189,2.0,8.0,81,0.00,CLR,,0.01,WeatherDisplay:10.37,2013-11-03 11:00:00,
2013-11-03 12:10:00,69.3,62.8,30.07,South,183,2.0,9.0,80,0.00,CLR,,0.01,WeatherDisplay:10.37,2013-11-03 11:10:00,
2013-11-03 12:20:00,69.6,62.8,30.07,SSW,192,1.0,9.0,79,0.00,CLR,,0.01,WeatherDisplay:10.37,2013-11-03 11:20:00,
2013-11-03 12:30:00,69.8,62.6,30.07,SSW,195,2.0,8.0,78,0.00,CLR,,0.01,WeatherDisplay:10.37,2013-11-03 11:30:00,
2013-11-03 12:40:00,70.1,62.5,30.06,SSW,199,3.0,9.0,77,0.00,CLR,,0.01,WeatherDisplay:10.37,2013-11-03 11:40:00,
2013-11-03 12:50:00,70.1,62.6,30.06,South,174,5.0,12.0,77,0.00,CLR,,0.01,WeatherDisplay:10.37,2013-11-03 11:50:00,
2013-11-03 13:00:00,70.6,63.0,30.06,SSW,196,3.0,12.0,77,0.00,CLR,,0.01,WeatherDisplay:10.37,2013-11-03 12:00:00,
2013-11-03 13:10:00,70.6,62.7,30.06,South,187,5.0,14.0,76,0.00,CLR,,0.01,WeatherDisplay:10.37,2013-11-03 12:10:00,
2013-11-03 13:20:00,70.6,62.7,30.05,SSW,201,5.0,12.0,76,0.00,CLR,,0.01,WeatherDisplay:10.37,2013-11-03 12:20:00,
2013-11-03 13:30:00,70.7,62.4,30.05,SSW,194,6.0,12.0,75,0.00,CLR,,0.01,WeatherDisplay:10.37,2013-11-03 12:30:00,
2013-11-03 13:40:00,70.0,62.1,30.05,SW,223,5.0,13.0,76,0.00,CLR,,0.01,WeatherDisplay:10.37,2013-11-03 12:40:00,
2013-11-03 13:50:00,70.6,62.3,30.05,SSW,200,3.0,12.0,75,0.00,CLR,,0.01,WeatherDisplay:10.37,2013-11-03 12:50:00,
2013-11-03 14:00:00,71.0,62.7,30.04,SSW,200,2.0,12.0,75,0.00,CLR,,0.01,WeatherDisplay:10.37,2013-11-03 13:00:00,
2013-11-03 14:10:00,71.0,62.7,30.04,SSW,200,3.0,12.0,75,0.00,CLR,,0.01,WeatherDisplay:10.37,2013-11-03 13:10:00,
2013-11-03 14:20:00,70.9,62.6,30.04,SSW,204,6.0,12.0,75,0.00,CLR,,0.01,WeatherDisplay:10.37,2013-11-03 13:20:00,
2013-11-03 14:30:00,70.2,62.6,30.04,SSW,195,2.0,10.0,77,0.00,CLR,,0.01,WeatherDisplay:10.37,2013-11-03 13:30:00,
2013-11-03 14:40:00,69.5,62.7,30.04,SSW,205,3.0,12.0,79,0.01,RA,,0.02,WeatherDisplay:10.37,2013-11-03 13:40:00,
2013-11-03 14:50:00,69.8,63.0,30.04,SW,216,2.0,8.0,79,0.00,,,0.02,WeatherDisplay:10.37,2013-11-03 13:50:00,
2013-11-03 15:00:00,69.3,62.6,30.04,SSW,198,3.0,12.0,79,0.00,CLR,,0.02,WeatherDisplay:10.37,2013-11-03 14:00:00,
2013-11-03 15:10:00,69.0,62.9,30.04,South,188,3.0,12.0,81,0.00,CLR,,0.02,WeatherDisplay:10.37,2013-11-03 14:10:00,
2013-11-03 15:20:00,68.7,63.0,30.04,SSW,193,3.0,9.0,82,0.00,CLR,,0.02,WeatherDisplay:10.37,2013-11-03 14:20:00,
2013-11-03 15:30:00,68.6,62.9,30.03,South,185,2.0,9.0,82,0.00,CLR,,0.02,WeatherDisplay:10.37,2013-11-03 14:30:00,
2013-11-03 15:40:00,68.5,63.1,30.03,SSW,196,1.0,7.0,83,0.00,CLR,,0.02,WeatherDisplay:10.37,2013-11-03 14:40:00,
2013-11-03 15:50:00,68.4,63.0,30.03,SSW,208,1.0,8.0,83,0.00,CLR,,0.02,WeatherDisplay:10.37,2013-11-03 14:50:00,
2013-11-03 16:00:00,67.5,63.2,30.03,SSW,200,3.0,10.0,86,0.02,RA,,0.04,WeatherDisplay:10.37,2013-11-03 15:00:00,
2013-11-03 16:10:00,67.2,63.2,30.03,South,187,2.0,6.0,87,0.00,,,0.04,WeatherDisplay:10.37,2013-11-03 15:10:00,
2013-11-03 16:20:00,67.1,63.4,30.03,SSW,210,2.0,7.0,88,0.00,CLR,,0.04,WeatherDisplay:10.37,2013-11-03 15:20:00,
2013-11-03 16:30:00,66.9,62.6,30.03,SSW,212,2.0,7.0,86,0.00,CLR,,0.04,WeatherDisplay:10.37,2013-11-03 15:30:00,
2013-11-03 16:40:00,66.9,62.6,30.03,SW,227,2.0,8.0,86,0.00,CLR,,0.04,WeatherDisplay:10.37,2013-11-03 15:40:00,
2013-11-03 16:50:00,67.0,63.0,30.03,SW,217,0.0,5.0,87,0.00,CLR,,0.04,WeatherDisplay:10.37,2013-11-03 15:50:00,
2013-11-03 17:00:00,67.0,63.3,30.03,SSW,197,1.0,6.0,88,0.00,CLR,,0.04,WeatherDisplay:10.37,2013-11-03 16:00:00,
2013-11-03 17:10:00,67.0,63.3,30.03,SSW,207,0.0,7.0,88,0.00,CLR,,0.04,WeatherDisplay:10.37,2013-11-03 16:10:00,
2013-11-03 17:20:00,66.9,63.2,30.03,SW,223,1.0,4.0,88,0.00,CLR,,0.04,WeatherDisplay:10.37,2013-11-03 16:20:00,
2013-11-03 17:30:00,66.7,63.0,30.04,WSW,241,2.0,7.0,88,0.00,CLR,,0.04,WeatherDisplay:10.37,2013-11-03 16:30:00,
2013-11-03 17:40:00,66.6,62.9,30.04,SW,220,1.0,5.0,88,0.00,CLR,,0.04,WeatherDisplay:10.37,2013-11-03 16:40:00,
2013-11-03 17:50:00,66.5,62.8,30.04,SW,220,1.0,4.0,88,0.00,CLR,,0.04,WeatherDisplay:10.37,2013-11-03 16:50:00,
2013-11-03 18:00:00,66.4,62.7,30.04,SW,217,2.0,6.0,88,0.00,CLR,,0.04,WeatherDisplay:10.37,2013-11-03 17:00:00,
2013-11-03 18:10:00,66.3,62.6,30.04,SW,225,0.0,6.0,88,0.00,CLR,,0.04,WeatherDisplay:10.37,2013-11-03 17:10:00,
2013-11-03 18:20:00,66.1,62.4,30.05,WSW,256,1.0,6.0,88,0.00,CLR,,0.04,WeatherDisplay:10.37,2013-11-03 17:20:00,
2013-11-03 18:30:00,65.9,62.6,30.04,SSW,202,1.0,4.0,89,0.00,CLR,,0.04,WeatherDisplay:10.37,2013-11-03 17:30:00,
2013-11-03 18:40:00,65.8,62.5,30.05,SSW,192,0.0,4.0,89,0.00,CLR,,0.04,WeatherDisplay:10.37,2013-11-03 17:40:00,
2013-11-03 18:50:00,65.7,62.4,30.05,SSW,193,0.0,3.0,89,0.00,CLR,,0.04,WeatherDisplay:10.37,2013-11-03 17:50:00,
2013-11-03 19:00:00,65.6,62.3,30.05,SSW,193,0.0,1.0,89,0.00,CLR,,0.04,WeatherDisplay:10.37,2013-11-03 18:00:00,
2013-11-03 19:10:00,65.5,62.2,30.05,SSW,193,0.0,1.0,89,0.00,CLR,,0.04,WeatherDisplay:10.37,2013-11-03 18:10:00,
2013-11-03 19:20:00,65.4,62.4,30.05,SSW,193,0.0,1.0,90,0.00,CLR,,0.04,WeatherDisplay:10.37,2013-11-03 18:20:00,
2013-11-03 19:30:00,65.3,62.3,30.05,SSW,193,0.0,1.0,90,0.00,CLR,,0.04,WeatherDisplay:10.37,2013-11-03 18:30:00,
2013-11-03 19:40:00,65.2,62.2,30.05,SSW,193,0.0,1.0,90,0.00,CLR,,0.04,WeatherDisplay:10.37,2013-11-03 18:40:00,
2013-11-03 19:50:00,65.1,62.1,30.05,SSW,193,0.0,1.0,90,0.00,CLR,,0.04,WeatherDisplay:10.37,2013-11-03 18:50:00,
2013-11-03 20:00:00,65.1,62.1,30.05,SSW,193,0.0,2.0,90,0.00,CLR,,0.04,WeatherDisplay:10.37,2013-11-03 19:00:00,
2013-11-03 20:10:00,65.0,62.0,30.05,SSW,193,0.0,1.0,90,0.00,CLR,,0.04,WeatherDisplay:10.37,2013-11-03 19:10:00,
2013-11-03 20:20:00,65.0,62.0,30.05,SSW,193,0.0,1.0,90,0.00,CLR,,0.04,WeatherDisplay:10.37,2013-11-03 19:20:00,
2013-11-03 20:30:00,65.0,61.7,30.05,SSW,193,0.0,1.0,89,0.00,CLR,,0.04,WeatherDisplay:10.37,2013-11-03 19:30:00,
2013-11-03 20:40:00,65.0,61.7,30.05,SSW,193,0.0,2.0,89,0.00,CLR,,0.04,WeatherDisplay:10.37,2013-11-03 19:40:00,
2013-11-03 20:50:00,64.9,61.6,30.05,SSW,193,0.0,1.0,89,0.00,CLR,,0.04,WeatherDisplay:10.37,2013-11-03 19:50:00,
2013-11-03 21:00:00,64.9,61.6,30.06,SSW,193,0.0,1.0,89,0.00,CLR,,0.04,WeatherDisplay:10.37,2013-11-03 20:00:00,
2013-11-03 21:10:00,64.8,61.5,30.06,SSW,193,0.0,2.0,89,0.00,CLR,,0.04,WeatherDisplay:10.37,2013-11-03 20:10:00,
2013-11-03 21:20:00,64.8,61.5,30.06,SSW,193,0.0,1.0,89,0.00,CLR,,0.04,WeatherDisplay:10.37,2013-11-03 20:20:00,
2013-11-03 21:30:00,64.6,61.3,30.06,SSW,193,0.0,0.0,89,0.00,CLR,,0.04,WeatherDisplay:10.37,2013-11-03 20:30:00,
2013-11-03 21:40:00,64.5,61.2,30.06,SSW,193,0.0,2.0,89,0.00,CLR,,0.04,WeatherDisplay:10.37,2013-11-03 20:40:00,
2013-11-03 21:50:00,64.5,61.2,30.06,SSW,193,0.0,1.0,89,0.00,CLR,,0.04,WeatherDisplay:10.37,2013-11-03 20:50:00,
2013-11-03 22:00:00,64.4,61.1,30.05,SSW,193,0.0,1.0,89,0.00,CLR,,0.04,WeatherDisplay:10.37,2013-11-03 21:00:00,
2013-11-03 22:10:00,64.3,60.7,30.05,SSW,193,0.0,0.0,88,0.00,CLR,,0.04,WeatherDisplay:10.37,2013-11-03 21:10:00,
2013-11-03 22:20:00,64.2,60.6,30.05,SSW,193,0.0,0.0,88,0.00,CLR,,0.04,WeatherDisplay:10.37,2013-11-03 21:20:00,
2013-11-03 22:30:00,64.1,60.8,30.04,SSW,193,0.0,1.0,89,0.00,CLR,,0.04,WeatherDisplay:10.37,2013-11-03 21:30:00,
2013-11-03 22:40:00,64.1,60.5,30.04,SSW,193,0.0,2.0,88,0.00,CLR,,0.04,WeatherDisplay:10.37,2013-11-03 21:40:00,
2013-11-03 22:50:00,64.0,60.4,30.04,SSW,193,0.0,2.0,88,0.00,CLR,,0.04,WeatherDisplay:10.37,2013-11-03 21:50:00,
2013-11-03 23:00:00,63.8,60.5,30.03,SSW,211,3.0,7.0,89,0.00,CLR,,0.04,WeatherDisplay:10.37,2013-11-03 22:00:00,
2013-11-03 23:10:00,63.8,60.5,30.01,SSW,212,3.0,8.0,89,0.00,CLR,,0.04,WeatherDisplay:10.37,2013-11-03 22:10:00,
2013-11-03 23:20:00,63.5,59.9,30.01,SW,221,3.0,7.0,88,0.00,CLR,,0.04,WeatherDisplay:10.37,2013-11-03 22:20:00,
2013-11-03 23:30:00,63.6,60.0,30.01,SW,228,1.0,7.0,88,0.00,CLR,,0.04,WeatherDisplay:10.37,2013-11-03 22:30:00,
2013-11-03 23:40:00,63.8,60.1,30.02,SSW,202,0.0,6.0,88,0.00,CLR,,0.04,WeatherDisplay:10.37,2013-11-03 22:40:00,
2013-11-03 23:50:00,63.7,60.1,30.03,SSW,194,0.0,1.0,88,0.00,CLR,,0.04,WeatherDisplay:10.37,2013-11-03 22:50:00,